Regional Weather Roundup
Issued by NWS Sioux Falls, SD

Home | Current Version | Previous Version | Text Only | Print | Product List | Glossary Off
Versions: 1 2 3 4 5 6 7 8 9 10 11 12 13 14 15 16 17 18 19 20 21 22 23 24 25 26 27 28 29 30 31 32 33 34 35 36 37 38 39 40 41 42 43 44 45 46 47 48 49 50

000
ASUS43 KFSD 200510
RWRFSD

WEATHER ROUNDUP FOR SE SOUTH DAKOTA/SW MINNESOTA/NW IOWA
NATIONAL WEATHER SERVICE SIOUX FALLS SD
1100 PM CST FRI DEC 19 2014

NOTE: "FAIR" INDICATES FEW OR NO CLOUDS BELOW 12,000 FEET WITH NO
SIGNIFICANT WEATHER AND OR OBSTRUCTIONS TO VISIBILITY.


SDZ038>040-050-052>070-200600-
SOUTHEAST SOUTH DAKOTA

CITY           SKY/WX    TMP DP  RH WIND       PRES   REMARKS
CHAMBERLAIN    CLOUDY    17  16  93 E3        30.00R FOG
HURON          CLOUDY    28  26  92 S12       30.03S FOG     WCI  18
MADISON        CLOUDY    28  28 100 S17       30.03F WCI  16
MITCHELL       CLOUDY    29  27  92 S12       30.05R FOG     WCI  19
SIOUX FALLS    CLOUDY    31  28  89 S9        30.07S WCI  23
WINNER         FAIR      30  23  75 S7        29.97F WCI  23
YANKTON        CLOUDY    32  28  86 S3        30.07S
$$

MNZ071-072-080-081-089-090-097-098-200600-
SOUTHWEST MINNESOTA

CITY           SKY/WX    TMP DP  RH WIND       PRES   REMARKS
FAIRMONT       CLOUDY    30  25  80 S10       30.13S WCI  21
JACKSON        CLOUDY    32  30  93 S14       30.11S WCI  22
LUVERNE        CLOUDY    32  30  93 S9        30.09S FOG     WCI  24
MARSHALL       CLOUDY    30  27  86 S12       30.08S WCI  21
MONTEVIDEO     CLOUDY    30  30 100 SW9       30.08S FOG     WCI  22
PIPESTONE      CLOUDY    30  28  93 SW6       30.06R FOG     WCI  24
REDWOOD FALLS  CLOUDY    32  28  85 S14       30.11R FOG     WCI  22
TRACY          CLOUDY    32  29  91 S13       30.08S WCI  22
WINDOM         CLOUDY    30  28  93 S8        30.10S FOG     WCI  23
WORTHINGTON    CLOUDY    28  27  93 S13       30.09S WCI  18
$$

IAZ001>003-012>014-020>022-031-032-NEZ013-014-SDZ071-200600-
NORTHWEST IOWA

CITY           SKY/WX    TMP DP  RH WIND       PRES   REMARKS
CHEROKEE       CLOUDY    31  30  96 S9        30.13S FOG     WCI  23
DENISON        CLOUDY    30  30 100 S8        30.13S FOG     WCI  23
ESTHERVILLE    CLOUDY    30  29  96 S9        30.12S WCI  22
LE MARS        CLOUDY    32  30  93 SE9       30.11S WCI  24
ORANGE CITY    CLOUDY    32  28  86 SE6       30.09F FOG     WCI  26
SHELDON        CLOUDY    30  30 100 S10       30.09F FOG     WCI  21
SIOUX CITY     CLOUDY    33  29  85 SE9       30.11S WCI  25
SPENCER        CLOUDY    32  28  85 S13       30.13R WCI  22
STORM LAKE     CLOUDY    28  28 100 S10G17    30.14R FOG     WCI  19
$$

ABBREVIATIONS USED IN REMARKS
   TC - TEMPERATURE IN CELSIUS
  WCI - WIND CHILL INDEX
   HX - HEAT INDEX
  VSB - VISIBILITY



USA.gov is the U.S. government's official web portal to all federal, state and local government web resources and services.